Location: Quaker Farms
(41.4276°N, 73.1557°W)
Time: 19:46:56
(UTC+00:00)

S-56A Canister/Altair - Pass Details

Date: 21 June 2021
Orbit: 631 x 2501 km, 38.9° (Epoch: 30 July)

Event Time Altitude Azimuth Distance (km) Brightness Sun altitude
Rises 11:52:49 0° 271° (W) 2,944 10.0 25.9°
Reaches altitude 10° 11:54:57 10° 268° (W) 2,094 9.3 26.3°
Maximum altitude 11:59:35 62° 188° (S) 873 8.1 27.1°
Drops below altitude 10° 12:05:46 10° 109° (ESE) 2,777 11.6 28.3°
Sets 12:08:59 0° 106° (ESE) 4,008 12.2 28.9°
